Regional Weather Roundup
Issued by NWS

Home | Current Version | Previous Version | Graphics & Text | Print | Product List | Glossary On
Versions: 1 2 3 4 5 6 7 8 9 10 11 12 13 14 15 16 17 18 19 20 21 22 23 24 25 26 27 28 29 30 31 32 33 34 35 36 37 38 39 40 41 42 43 44 45 46 47 48 49 50
000
ASUS43 KDTX 212001
RWRMI
MICHIGAN HOURLY REGIONAL WEATHER ROUNDUP
NATIONAL WEATHER SERVICE DETROIT/PONTIAC MI
300 PM EST TUE NOV 21 2017

NOTE: "FAIR" INDICATES FEW OR NO CLOUDS BELOW 12,000 FEET WITH NO
SIGNIFICANT WEATHER AND/OR OBSTRUCTION TO VISIBILITY.

MIZ047>049-052>055-059>063-066>070-074>076-081>083-212100-
SOUTHEAST LOWER MICHIGAN

CITY           SKY/WX    TMP DP  RH WIND       PRES   REMARKS
ADRIAN         CLOUDY    47  32  56 W14       29.81R
ALMA           CLOUDY    42  32  68 W10G21    29.75R
ANN ARBOR      CLOUDY    48  33  56 SW14      29.77R
BAD AXE        LGT RAIN  43  32  66 W21G26    29.71R
CARO           LGT RAIN  41  34  75 W18G25    29.73R
DETROIT CITY   CLOUDY    50  32  50 SW14      29.76R
DETROIT        CLOUDY    49  33  54 SW15      29.78R
FLINT          LGT RAIN  41  37  86 W17       29.77R
GROSSE ILE     CLOUDY    48  33  55 SW10G22   29.77S
HILLSDALE      CLOUDY    45  32  61 W9G16     29.79R
HOWELL         RAIN      43  39  86 W14       29.77R

CITY           SKY/WX    TMP DP  RH WIND       PRES   REMARKS
JACKSON        LGT RAIN  43  36  76 W17G26    29.79R
LAMBERTVILLE   CLOUDY    51  33  50 SW12G21   29.79S
LANSING        LGT RAIN  39  36  89 W16       29.78R FOG     WCI  30
LAPEER         DRIZZLE   45  37  73 W13G22    29.74R
MASON          LGT RAIN  42  38  86 W12       29.78R
MONROE         PTSUNNY   49  33  52 SW15G25   29.78R
MT. CLEMENS    CLOUDY    49  34  55 SW10      29.73R
PONTIAC        LGT RAIN  47  34  60 W21       29.74R
PORT HOPE        N/A     47  30  51 W14G26    29.67R
PORT HURON     CLOUDY    48  30  49 S8        29.73S
TRI CITIES     CLOUDY    44  34  67 SW16      29.73R
MIDLAND        CLOUDY    44  26  50 W17G24    29.73R
TROY           CLOUDY    52  31  45 SW8       29.76R
SAGINAW HB     LGT RAIN  41  34  75 SW17G25   29.73R
$$
MIZ043>046-050>051-056>058-064>065-071>073-077>080-212100-
SOUTHWEST LOWER MICHIGAN

CITY           SKY/WX    TMP DP  RH WIND       PRES   REMARKS
BATTLE CREEK   LGT RAIN  39  36  89 SW15      29.81R WCI  31
BENTON HARBOR  CLOUDY    43  29  57 NW10G20   29.85R
BIG RAPIDS     CLOUDY    38  22  53 NW12G22   29.76R WCI  30
COLDWATER      RAIN      41  37  87 W18       29.84R
FREMONT        FAIR      39  27  62 NW20G25   29.79R WCI  29
HOLLAND        CLOUDY    40  28  62 NW16G26   29.82R WCI  31
GRAND RAPIDS   CLOUDY    40  30  67 NW16      29.79R WCI  31
IONIA          CLOUDY    40  37  89 SW15      29.77R WCI  31
KALAMAZOO      LGT RAIN  39  34  82 SW9       29.82R WCI  33
LUDINGTON      CLOUDY    36  22  57 NW12G20   29.81R WCI  28
MARSHALL       LGT RAIN  39  38  97 SW10G16   29.80R WCI  32
MOUNT PLEASANT CLOUDY    42  24  49 W10G20    29.74R
MUSKEGON       CLOUDY    39  24  55 NW12G26   29.82R WCI  32
SOUTH HAVEN    CLOUDY    42  28  59 NW15G22   29.84R
$$
MIZ016>042-212100-
NORTHERN LOWER MICHIGAN

CITY           SKY/WX    TMP DP  RH WIND       PRES   REMARKS
ALPENA         CLOUDY    37  25  61 NW13G23   29.71R WCI  29
BEAVER ISLAND  CLOUDY    32  19  59 NW13G28   29.78R WCI  22
BELLAIRE       CLOUDY    35  25  67 NW12G18   29.78R WCI  26
CADILLAC       CLOUDY    34  22  59 NW12G22   29.74R WCI  26
CHARLEVOIX     CLOUDY    35  21  57 W23G30    29.79R WCI  23
FRANKFORT      CLOUDY    35  21  56 NW14G25   29.82R WCI  26
GAYLORD        CLOUDY    31  21  66 W10G21    29.71R WCI  22
GRAYLING       CLOUDY    35  24  66 NW22      29.73R WCI  23
HARBOR SPRINGS CLOUDY    34  22  62 W14G24    29.74R WCI  24
HOUGHTON LAKE  CLOUDY    37  23  56 NW18G25   29.72  WCI  27
OSCODA         PTSUNNY   43  19  38 W17G23    29.68R
PELLSTON       FLURRIES  32  23  69 NW22G31   29.74R WCI  19
ROGERS CITY    CLOUDY    35  22  58 W13G24    29.72R WCI  26
TRAVERSE CITY  CLOUDY    35  21  56 NW18G28   29.78R WCI  24
$$
MIZ007>008-015-212100-
EASTERN UPPER MICHIGAN

CITY           SKY/WX    TMP DP  RH WIND       PRES   REMARKS
KINROSS        FLURRIES  30  20  66 W23G29    29.68R WCI  17
MACKINAC ISLAN CLOUDY    33  20  59 NW21G36   29.72R WCI  20
NEWBERRY       LGT SNOW  27  26  96 NW13G26   29.73R VSB 1   WCI  16
S. S. MARIE    FLURRIES  32  22  66 W22G31    29.66R WCI  19
MUNISING         N/A     29  24  82 NW23G38   29.82R WCI  15
$$
MIZ004>006-011>014-085-212100-
CENTRAL UPPER MICHIGAN

CITY           SKY/WX    TMP DP  RH WIND       PRES   REMARKS
MANISTIQUE     FLURRIES  28  18  64 NW16G28   29.79R WCI  17
ESCANABA       FLURRIES  28  16  60 NW15G23   29.85R WCI  16
MENOMINEE      CLOUDY    31  17  56 N14G20    29.88R WCI  21
SAWYER-GWINN   FLURRIES  23  16  74 NW21G26   29.82R WCI   8
$$
MIZ001>003-009>011-084-212100-
WESTERN UPPER MICHIGAN

CITY           SKY/WX    TMP DP  RH WIND       PRES   REMARKS
IRON MOUNTAIN  MIX PCPN  26  13  57 NW22G31   29.85R WCI  12
HOUGHTON       LGT SNOW  21  12  68 NW20      29.89R WCI   6
COPPER HARBOR    N/A     26  18  71 N28G38    29.87R WCI  10
IRONWOOD       FLURRIES  20  13  74 NW18G26   29.98R WCI   5
$$

ABBREVIATIONS USED IN REMARKS
   TC - TEMPERATURE IN CELSIUS
  WCI - WIND CHILL INDEX
   HX - HEAT INDEX
  VSB - VISIBILITY





USA.gov is the U.S. government's official web portal to all federal, state and local government web resources and services.